0 HST 1 20580U 90037B 26093.08220152 .00012851 00000-0 42314-3 0 9998 2 20580 28.4722 233.5527 0002097 46.0516 314.0252 15.29886463777054 0 ISS (ZARYA) 1 25544U 98067A 26093.10136821 .00012012 00000-0 22784-3 0 9994 2 25544 51.6327 311.6710 0006237 265.7481 94.2795 15.48735493560114 0 CXO 1 25867U 99040B 26095.33038449 .00000781 00000-0 00000-0 0 9992 2 25867 54.9818 118.8093 7953036 310.6470 0.0525 0.37805440 17044